Flag for Germany Weather past 2 weeks in Eckernförde, Schleswig-Holstein, Germany

Now
62 °F

Partly sunny.


Feels Like: 62 °F
Forecast: 52 / 68 °F
Wind: 3 mph from Southwest

Location: Schleswig

Current Time: Aug 28, 2015 at 7:37:36 PM

Latest Report: Aug 28, 2015 at 7:00 PM


Visibility: 19 mi

Pressure: 30.04 "Hg

Humidity: 79%

Dew point: 55 °F

Location of EckernfördeLocation

Historic Weather in Eckernförde — Graph

°F

Eckernförde temperature yesterday

Maximum temperature yesterday: 69 °F (at 12:00 AM)
Minimum temperature yesterday: 58 °F (at 10:00 PM)
Average temperature yesterday: 63 °F

Past Weeks' High & Low Weather Summary

 TemperatureHumidityPressure
High76 °F (Aug 21, 3:00 PM)100% (Aug 16, 1:00 AM)30.31 "Hg (Aug 16, 1:00 AM)
Low53 °F (Aug 21, 7:00 AM)36% (Aug 21, 3:00 PM)29.59 "Hg (Aug 24, 10:00 PM)
Average64 °F84%29.95 "Hg
* Reported Aug 13 6:00 PM — Aug 28 6:00 PM, Eckernförde, Weather by CustomWeather, © 2015

Note: Actual official high and low records may vary slightly from our data, if they occured in-between our weather recording intervals... More about our weather records

Advertising

Eckernförde weather history for previous 24 hours

 ConditionsComfort  
Time TempWeatherWind HumidityBarometerVisibility
6:00 PM
Fri, Aug 28
62 °FOvercast.3 mph84%30.04 "Hg19 mi
4:00 PM67 °FScattered clouds.6 mph72%30.01 "Hg19 mi
3:00 PM67 °FScattered clouds.6 mph67%30.00 "Hg19 mi
2:00 PM64 °FOvercast.7 mph79%30.00 "Hg16 mi
1:00 PM64 °FPartly sunny.6 mph83%29.98 "Hg12 mi
12:00 PM63 °FPartly sunny.5 mph83%29.97 "Hg12 mi
10:00 AM63 °FPartly sunny.6 mph89%29.94 "Hg5 mi
9:00 AM59 °FFog.5 mph95%29.92 "Hg4 mi
8:00 AM56 °FPassing clouds.3 mph99%29.90 "Hg7 mi
7:00 AM54 °FFog.2 mph100%29.88 "Hg3 mi
6:00 AM54 °FClear.2 mph99%29.87 "Hg2 mi
5:00 AM55 °FClear.2 mph99%29.85 "Hg5 mi
4:00 AM55 °FPassing clouds.2 mph99%29.83 "Hg13 mi
3:00 AM55 °FPassing clouds.2 mph98%29.82 "Hg16 mi
2:00 AM55 °FOvercast.3 mph98%29.81 "Hg19 mi
1:00 AM56 °FPassing clouds.3 mph97%29.80 "Hg16 mi
10:00 PM
Thu, Aug 27
58 °FOvercast.6 mph95%29.79 "Hg16 mi
9:00 PM59 °FOvercast.5 mph93%29.78 "Hg22 mi
8:00 PM60 °FOvercast.5 mph89%29.78 "Hg25 mi
7:00 PM60 °FOvercast.5 mph82%29.78 "Hg25 mi
Weather by CustomWeather, © 2015

See weather overviewHow to use our weather pages